Back to catalog

STARLINK-11351

AliveCommunicationsVLEO
NORAD 61886·PAYLOAD·🇺🇸 United States

Launched Nov 9, 2024 from Vandenberg Space Force Base

Loading…

Next Passes (next 24 hours)

TLE

FreshSource: CelesTrak SupGP

Epoch: Sep 14, 2026, 20:51 UTC

1 61886C 24204N   26257.86923611 -.00037062  00000+0 -30523-3 0  2571
2 61886  53.1568 143.3902 0001057  83.3199 191.9332 15.69733172    10

Track STARLINK-11351 in real time with AllMySat

Download on the App Store